• In Hungary
  • List of Countries
  • For 7 days
  • Water Temperature
  • Satellite Maps
  • Weather Map
  • News
  • Weather Widgets
  • user-avatar
    Login

    Hourly Weather Drovashi

    Today, 15 August, Wednesday

    Time Temperature Precipitation Wind Pressure Humidity
    00:00 +19°C° 0.4 mm 2 mps 736 mmHg 91%
    01:00 +18°C° 0.4 mm 2 mps 736 mmHg 93%
    02:00 +18°C° 0 mm 3 mps 736 mmHg 94%
    03:00 +17°C° 0 mm 3 mps 736 mmHg 95%
    04:00 +17°C° 0 mm 3 mps 736 mmHg 95%
    05:00 +16°C° 0 mm 3 mps 736 mmHg 95%
    06:00 +17°C° 0 mm 3 mps 737 mmHg 93%
    07:00 +18°C° 0 mm 3 mps 737 mmHg 90%
    08:00 +19°C° 0 mm 3 mps 737 mmHg 88%
    09:00 +20°C° 0 mm 4 mps 738 mmHg 82%
    10:00 +21°C° 0 mm 4 mps 738 mmHg 76%
    11:00 +22°C° 0 mm 4 mps 738 mmHg 71%
    12:00 +23°C° 0.1 mm 4 mps 738 mmHg 68%
    13:00 +23°C° 0.1 mm 5 mps 738 mmHg 66%
    14:00 +25°C° 0.1 mm 5 mps 738 mmHg 63%
    15:00 +23°C° 0.1 mm 4 mps 738 mmHg 67%
    16:00 +23°C° 0.1 mm 4 mps 738 mmHg 71%
    17:00 +22°C° 0.1 mm 3 mps 738 mmHg 75%
    18:00 +21°C° 0.1 mm 3 mps 739 mmHg 79%
    19:00 +20°C° 0.1 mm 3 mps 739 mmHg 84%
    20:00 +19°C° 0.1 mm 2 mps 739 mmHg 88%
    21:00 +18°C° 0 mm 2 mps 739 mmHg 90%
    22:00 +17°C° 0 mm 2 mps 739 mmHg 92%
    23:00 +17°C° 0 mm 2 mps 739 mmHg 94%

    Tomorrow, 16 August, Thursday

    Time Temperature Precipitation Wind Pressure Humidity
    00:00 +17°C° 0 mm 2 mps 740 mmHg 95%
    01:00 +16°C° 0 mm 2 mps 740 mmHg 96%
    02:00 +16°C° 0 mm 2 mps 740 mmHg 97%
    03:00 +16°C° 0 mm 2 mps 740 mmHg 97%
    04:00 +15°C° 0 mm 2 mps 740 mmHg 97%
    05:00 +15°C° 0 mm 2 mps 741 mmHg 98%
    06:00 +16°C° 0 mm 2 mps 741 mmHg 96%
    07:00 +16°C° 0 mm 2 mps 741 mmHg 94%
    08:00 +17°C° 0 mm 2 mps 741 mmHg 92%
    09:00 +17°C° 0 mm 2 mps 742 mmHg 89%
    10:00 +18°C° 0 mm 2 mps 742 mmHg 86%
    11:00 +19°C° 0 mm 2 mps 742 mmHg 83%
    12:00 +19°C° 0 mm 2 mps 742 mmHg 81%
    13:00 +20°C° 0 mm 2 mps 742 mmHg 78%
    14:00 +21°C° 0 mm 2 mps 742 mmHg 75%
    15:00 +21°C° 0 mm 2 mps 742 mmHg 74%
    16:00 +21°C° 0 mm 2 mps 742 mmHg 74%
    17:00 +21°C° 0 mm 2 mps 742 mmHg 74%
    18:00 +20°C° 0 mm 2 mps 742 mmHg 79%
    19:00 +18°C° 0 mm 2 mps 743 mmHg 84%
    20:00 +18°C° 0 mm 1 mps 743 mmHg 89%
    21:00 +16°C° 0 mm 1 mps 743 mmHg 91%
    22:00 +16°C° 0 mm 1 mps 743 mmHg 92%
    23:00 +15°C° 0 mm 1 mps 743 mmHg 93%

    Day after tomorrow, 17 August, Friday

    Time Temperature Precipitation Wind Pressure Humidity
    00:00 +15°C° 0 mm 1 mps 743 mmHg 94%
    01:00 +15°C° 0 mm 1 mps 743 mmHg 95%
    02:00 +15°C° 0 mm 1 mps 743 mmHg 95%
    03:00 +15°C° 0 mm 1 mps 743 mmHg 95%
    04:00 +14°C° 0 mm 1 mps 743 mmHg 96%
    05:00 +14°C° 0 mm 1 mps 743 mmHg 96%
    06:00 +16°C° 0 mm 1 mps 744 mmHg 92%
    07:00 +17°C° 0 mm 2 mps 744 mmHg 88%
    08:00 +18°C° 0 mm 2 mps 744 mmHg 85%
    09:00 +20°C° 0 mm 2 mps 744 mmHg 79%
    10:00 +21°C° 0 mm 2 mps 744 mmHg 74%
    11:00 +23°C° 0 mm 2 mps 744 mmHg 68%
    12:00 +24°C° 0 mm 2 mps 744 mmHg 66%
    13:00 +25°C° 0 mm 1 mps 744 mmHg 63%
    14:00 +25°C° 0 mm 1 mps 743 mmHg 60%
    15:00 +25°C° 0 mm 1 mps 743 mmHg 61%
    16:00 +25°C° 0 mm 1 mps 743 mmHg 61%
    17:00 +25°C° 0 mm 1 mps 743 mmHg 61%
    18:00 +24°C° 0 mm 1 mps 743 mmHg 67%
    19:00 +22°C° 0 mm 1 mps 743 mmHg 74%
    20:00 +20°C° 0 mm 1 mps 743 mmHg 80%
    21:00 +20°C° 0 mm 1 mps 743 mmHg 83%
    22:00 +19°C° 0 mm 1 mps 743 mmHg 85%
    23:00 +19°C° 0 mm 1 mps 743 mmHg 88%

    18 August, Saturday

    Time Temperature Precipitation Wind Pressure Humidity
    00:00 +18°C° 0 mm 1 mps 743 mmHg 90%
    01:00 +18°C° 0 mm 1 mps 743 mmHg 91%
    02:00 +18°C° 0 mm 1 mps 743 mmHg 92%
    03:00 +18°C° 0 mm 1 mps 743 mmHg 93%
    04:00 +18°C° 0 mm 1 mps 743 mmHg 93%
    05:00 +16°C° 0 mm 1 mps 743 mmHg 94%
    06:00 +19°C° 0 mm 1 mps 743 mmHg 90%
    07:00 +20°C° 0 mm 1 mps 743 mmHg 86%
    08:00 +22°C° 0 mm 1 mps 743 mmHg 82%
    09:00 +23°C° 0.1 mm 1 mps 743 mmHg 76%
    10:00 +25°C° 0.1 mm 1 mps 743 mmHg 70%
    11:00 +26°C° 0.1 mm 1 mps 743 mmHg 65%
    12:00 +27°C° 0.4 mm 1 mps 743 mmHg 62%
    13:00 +27°C° 0.4 mm 1 mps 743 mmHg 60%
    14:00 +28°C° 0.4 mm 1 mps 743 mmHg 57%
    15:00 +27°C° 0.4 mm 1 mps 743 mmHg 59%
    16:00 +27°C° 0.4 mm 1 mps 742 mmHg 61%
    17:00 +27°C° 0.4 mm 1 mps 742 mmHg 63%
    18:00 +25°C° 0.3 mm 1 mps 742 mmHg 69%
    19:00 +23°C° 0.3 mm 1 mps 743 mmHg 75%
    20:00 +19°C° 0.3 mm 0 mps 743 mmHg 82%
    21:00 +19°C° 0.1 mm 0 mps 743 mmHg 83%
    22:00 +18°C° 0.1 mm 0 mps 743 mmHg 85%
    23:00 +18°C° 0.1 mm 0 mps 743 mmHg 86%

    19 August, Sunday

    Time Temperature Precipitation Wind Pressure Humidity
    00:00 +19°C° 0 mm 1 mps 743 mmHg 87%
    01:00 +19°C° 0 mm 1 mps 743 mmHg 88%
    02:00 +19°C° 0 mm 1 mps 743 mmHg 88%
    03:00 +18°C° 0 mm 1 mps 743 mmHg 89%
    04:00 +18°C° 0 mm 1 mps 743 mmHg 89%
    05:00 +18°C° 0 mm 1 mps 743 mmHg 90%
    06:00 +19°C° 0 mm 1 mps 743 mmHg 86%
    07:00 +20°C° 0 mm 1 mps 743 mmHg 82%
    08:00 +21°C° 0 mm 2 mps 743 mmHg 79%
    09:00 +23°C° 0.2 mm 2 mps 743 mmHg 74%
    10:00 +24°C° 0.2 mm 2 mps 743 mmHg 70%
    11:00 +25°C° 0.2 mm 3 mps 743 mmHg 65%
    12:00 +25°C° 0.5 mm 3 mps 743 mmHg 64%
    13:00 +26°C° 0.5 mm 3 mps 743 mmHg 64%
    14:00 +26°C° 0.5 mm 4 mps 743 mmHg 64%
    15:00 +25°C° 0.3 mm 3 mps 743 mmHg 64%
    16:00 +25°C° 0.3 mm 3 mps 743 mmHg 65%
    17:00 +24°C° 0.3 mm 3 mps 743 mmHg 66%
    18:00 +22°C° 0 mm 3 mps 743 mmHg 71%
    19:00 +20°C° 0 mm 2 mps 743 mmHg 76%
    20:00 +18°C° 0 mm 2 mps 743 mmHg 82%
    21:00 +18°C° 0 mm 2 mps 743 mmHg 85%
    22:00 +17°C° 0 mm 2 mps 743 mmHg 89%
    23:00 +17°C° 0 mm 2 mps 743 mmHg 93%

    20 August, Monday

    Time Temperature Precipitation Wind Pressure Humidity
    00:00 +17°C° 0 mm 2 mps 743 mmHg 94%
    01:00 +16°C° 0 mm 2 mps 743 mmHg 95%
    02:00 +16°C° 0 mm 2 mps 743 mmHg 96%
    03:00 +16°C° 0 mm 2 mps 743 mmHg 96%
    04:00 +16°C° 0 mm 2 mps 744 mmHg 97%
    05:00 +16°C° 0 mm 1 mps 744 mmHg 97%
    06:00 +16°C° 0 mm 2 mps 744 mmHg 93%
    07:00 +17°C° 0 mm 2 mps 744 mmHg 89%
    08:00 +18°C° 0 mm 2 mps 744 mmHg 85%
    09:00 +19°C° 0 mm 2 mps 744 mmHg 79%
    10:00 +19°C° 0 mm 3 mps 744 mmHg 73%
    11:00 +20°C° 0 mm 3 mps 744 mmHg 67%
    12:00 +21°C° 0 mm 3 mps 744 mmHg 64%
    13:00 +21°C° 0 mm 3 mps 744 mmHg 62%
    14:00 +21°C° 0 mm 3 mps 744 mmHg 59%
    15:00 +21°C° 0 mm 3 mps 744 mmHg 59%
    16:00 +21°C° 0 mm 3 mps 744 mmHg 59%
    17:00 +21°C° 0 mm 2 mps 743 mmHg 60%
    18:00 +20°C° 0 mm 2 mps 743 mmHg 65%
    19:00 +19°C° 0 mm 1 mps 743 mmHg 70%
    20:00 +16°C° 0 mm 1 mps 743 mmHg 75%
    21:00 +16°C° 0 mm 1 mps 743 mmHg 77%
    22:00 +16°C° 0 mm 1 mps 743 mmHg 78%
    23:00 +15°C° 0 mm 1 mps 743 mmHg 80%
    Show more